Weather History for Highgate, VT

Change the Weather History Date:

Tuesday, March 11, 2014

  Actual Average (KPBG) Record (KPBG)
Temperature  
Mean Temperature 40 °F 29 °F  
Max Temperature 45 °F 38 °F 57 °F (1977)
Min Temperature 35 °F 19 °F -1 °F (1984)
Degree Days  
Heating Degree Days 25 36  
Month to date heating degree days 414  
Since 1 July heating degree days 6026  
Cooling Degree Days 0 0  
Month to date cooling degree days 0  
Year to date cooling degree days 0  
Moisture  
Dew Point 30 °F    
Average Humidity 69    
Maximum Humidity 89    
Minimum Humidity 51    
Precipitation  
Precipitation 0.00 in - 0.50 in (1964)
Month to date precipitation  
Year to date precipitation  
Sea Level Pressure  
Sea Level Pressure 29.55 in    
Wind  
Wind Speed 6 mph (WSW)    
Max Wind Speed 14 mph    
Max Gust Speed 21 mph    
Visibility 8 miles    
Events      
T = Trace of Precipitation, MM = Missing Value Source: NWS Daily Summary

Daily Weather History Graph

Daily Weather History Graph

Search for Another Location

Airport:

Trip Planner

Search our weather history database for the weather conditions in past years. The results will help you decide how hot, cold, wet, or windy it might be!

Date:

Astronomy

Mar. 11, 2014 Rise Set
Actual Time 7:12 AM EDT 6:53 PM EDT
Civil Twilight 6:43 AM EDT 7:22 PM EDT
Nautical Twilight 6:09 AM EDT 7:56 PM EDT
Astronomical Twilight 5:34 AM EDT 8:31 PM EDT
Moon 2:18 PM EDT (3/11) 4:13 AM EDT (3/11)
Length of Visible Light 12h 39m
Length of Day
11h 40m
Waxing Gibbous, 78% of the Moon is Illuminated
Mar 11
Waxing Gibbous
Mar 16
Full
Mar 23
Last Quarter
Mar 30
New
Apr 7
First Quarter

Hourly Weather History & Observations

Time (EDT) Temp. Windchill Dew Point Humidity Pressure Visibility Wind Dir Wind Speed Gust Speed Precip Events Conditions
12:15 AM 35.6 °F 27.1 °F 32.5 °F 89% 29.44 in 5.0 mi South 12.7 mph 20.7 mph N/A   Overcast
12:35 AM 36.0 °F 29.0 °F 32.7 °F 88% 29.43 in 7.0 mi South 9.2 mph 19.6 mph N/A   Overcast
12:55 AM 37.0 °F 28.5 °F 33.4 °F 87% 29.43 in 7.0 mi South 13.8 mph 19.6 mph N/A   Overcast
1:15 AM 37.4 °F 30.3 °F 33.3 °F 85% 29.42 in 7.0 mi South 10.4 mph 17.3 mph N/A   Overcast
1:35 AM 37.9 °F 31.5 °F 34.0 °F 86% 29.42 in 7.0 mi South 9.2 mph - N/A   Overcast
1:55 AM 38.3 °F 33.2 °F 34.3 °F 86% 29.41 in 7.0 mi South 6.9 mph - N/A   Overcast
2:15 AM 38.3 °F 32.5 °F 34.2 °F 85% 29.41 in 7.0 mi South 8.1 mph - N/A   Overcast
2:35 AM 38.3 °F 34.8 °F 33.8 °F 84% 29.41 in 7.0 mi South 4.6 mph - N/A   Overcast
2:55 AM 38.3 °F 33.9 °F 33.8 °F 84% 29.41 in 7.0 mi South 5.8 mph - N/A   Overcast
3:15 AM 38.3 °F 34.8 °F 33.8 °F 84% 29.40 in 7.0 mi South 4.6 mph - N/A   Overcast
3:35 AM 38.3 °F 34.8 °F 33.8 °F 84% 29.40 in 7.0 mi South 4.6 mph - N/A   Overcast
3:55 AM 38.3 °F 33.9 °F 33.8 °F 84% 29.40 in 7.0 mi South 5.8 mph - N/A   Overcast
4:15 AM 38.3 °F 33.9 °F 33.8 °F 84% 29.40 in 7.0 mi South 5.8 mph - N/A   Overcast
4:35 AM 38.3 °F 33.9 °F 33.4 °F 83% 29.40 in 7.0 mi SSW 5.8 mph - N/A   Overcast
4:55 AM 38.3 °F 33.9 °F 33.3 °F 82% 29.41 in 7.0 mi SSW 5.8 mph - N/A   Overcast
5:15 AM 38.3 °F 34.8 °F 32.9 °F 81% 29.42 in 7.0 mi South 4.6 mph - N/A   Overcast
5:35 AM 38.3 °F 33.2 °F 32.9 °F 81% 29.43 in 7.0 mi SSW 6.9 mph - N/A   Overcast
5:55 AM 38.3 °F 34.8 °F 32.9 °F 81% 29.43 in 7.0 mi SSW 4.6 mph - N/A   Overcast
6:15 AM 38.3 °F 33.9 °F 32.9 °F 81% 29.44 in 7.0 mi SW 5.8 mph - N/A   Overcast
6:35 AM 38.3 °F 34.8 °F 32.9 °F 81% 29.45 in 7.0 mi SW 4.6 mph - N/A   Overcast
6:55 AM 38.3 °F 35.9 °F 32.9 °F 81% 29.45 in 7.0 mi SW 3.5 mph - N/A   Overcast
7:15 AM 38.3 °F 34.8 °F 32.9 °F 81% 29.46 in 7.0 mi SW 4.6 mph - N/A   Overcast
7:35 AM 38.3 °F 35.9 °F 32.9 °F 81% 29.48 in 5.0 mi SW 3.5 mph - N/A   Haze
7:55 AM 38.3 °F 35.9 °F 32.9 °F 81% 29.48 in 5.0 mi WSW 3.5 mph - N/A   Haze
8:15 AM 40.8 °F - 34.3 °F 78% 29.49 in 5.0 mi Calm Calm - N/A   Haze
8:35 AM 41.0 °F - 33.8 °F 76% 29.50 in 5.0 mi Calm Calm - N/A   Haze
8:55 AM 41.0 °F - 34.0 °F 76% 29.51 in 5.0 mi Calm Calm - N/A   Haze
9:15 AM 41.0 °F 39.0 °F 33.8 °F 76% 29.51 in 5.0 mi SW 3.5 mph - N/A   Haze
9:35 AM 41.0 °F 38.0 °F 33.4 °F 74% 29.52 in 5.0 mi WSW 4.6 mph - N/A   Haze
9:55 AM 41.0 °F - 33.1 °F 73% 29.52 in 7.0 mi Calm Calm - N/A   Overcast
10:15 AM 41.0 °F 39.0 °F 32.5 °F 72% 29.53 in 7.0 mi SW 3.5 mph - N/A   Overcast
10:35 AM 41.0 °F 38.0 °F 32.0 °F 70% 29.53 in 7.0 mi West 4.6 mph - N/A   Overcast
10:55 AM 41.0 °F 38.0 °F 30.7 °F 67% 29.54 in 10.0 mi West 4.6 mph - N/A   Overcast
11:15 AM 41.5 °F 36.4 °F 30.6 °F 65% 29.54 in 10.0 mi West 8.1 mph - N/A   Overcast
11:35 AM 42.1 °F 38.4 °F 29.3 °F 61% 29.55 in 10.0 mi West 5.8 mph - N/A   Overcast
11:55 AM 42.1 °F 37.7 °F 29.3 °F 61% 29.56 in 10.0 mi West 6.9 mph - N/A   Overcast
12:15 PM 43.2 °F 40.5 °F 29.5 °F 59% 29.56 in 10.0 mi West 4.6 mph - N/A   Overcast
12:35 PM 42.1 °F 39.2 °F 28.2 °F 58% 29.56 in 10.0 mi WNW 4.6 mph - N/A   Overcast
12:55 PM 42.1 °F 37.1 °F 27.9 °F 57% 29.57 in 10.0 mi WNW 8.1 mph - N/A   Overcast
1:15 PM 41.0 °F 38.0 °F 28.4 °F 61% 29.58 in 10.0 mi WNW 4.6 mph - N/A   Overcast
1:35 PM 41.0 °F 36.4 °F 29.1 °F 63% 29.59 in 10.0 mi WNW 6.9 mph - N/A   Overcast
1:55 PM 42.1 °F 37.7 °F 29.7 °F 61% 29.58 in 10.0 mi WNW 6.9 mph - N/A   Overcast
2:15 PM 43.5 °F 38.3 °F 28.8 °F 56% 29.59 in 10.0 mi West 9.2 mph 17.3 mph N/A   Mostly Cloudy
2:35 PM 43.9 °F 41.3 °F 28.6 °F 55% 29.59 in 10.0 mi West 4.6 mph 16.1 mph N/A   Mostly Cloudy
2:55 PM 43.3 °F 39.9 °F 28.4 °F 56% 29.60 in 10.0 mi NW 5.8 mph - N/A   Overcast
3:15 PM 43.3 °F 39.2 °F 28.2 °F 55% 29.60 in 10.0 mi WNW 6.9 mph - N/A   Overcast
3:35 PM 45.9 °F 43.6 °F 28.6 °F 51% 29.60 in 10.0 mi NW 4.6 mph - N/A   Mostly Cloudy
3:55 PM 44.2 °F 41.8 °F 28.0 °F 53% 29.61 in 10.0 mi WNW 4.6 mph - N/A   Mostly Cloudy
4:15 PM 44.6 °F 42.2 °F 27.9 °F 52% 29.61 in 10.0 mi WNW 4.6 mph - N/A   Mostly Cloudy
4:35 PM 45.5 °F 42.5 °F 28.0 °F 51% 29.61 in 10.0 mi WNW 5.8 mph - N/A   Scattered Clouds
4:55 PM 43.3 °F 40.7 °F 27.3 °F 53% 29.62 in 10.0 mi NW 4.6 mph - N/A   Mostly Cloudy
5:15 PM 43.3 °F 41.7 °F 28.2 °F 55% 29.62 in 10.0 mi NW 3.5 mph - N/A   Overcast
5:35 PM 43.3 °F - 28.4 °F 56% 29.63 in 10.0 mi Calm Calm - N/A   Overcast
5:55 PM 42.3 °F - 27.9 °F 57% 29.64 in 10.0 mi Calm Calm - N/A   Overcast
6:15 PM 42.3 °F - 27.5 °F 56% 29.65 in 10.0 mi Calm Calm - N/A   Overcast
6:35 PM 42.1 °F 37.7 °F 26.2 °F 53% 29.65 in 10.0 mi West 6.9 mph - N/A   Overcast
6:55 PM 42.1 °F 39.2 °F 25.5 °F 52% 29.66 in 10.0 mi WNW 4.6 mph - N/A   Overcast
7:15 PM 41.2 °F 39.2 °F 26.1 °F 55% 29.67 in 10.0 mi West 3.5 mph - N/A   Overcast
7:35 PM 41.0 °F - 26.1 °F 55% 29.68 in 10.0 mi Calm Calm - N/A   Overcast
7:55 PM 41.0 °F - 26.2 °F 56% 29.69 in 10.0 mi Calm Calm - N/A   Mostly Cloudy
8:15 PM 41.0 °F - 27.0 °F 57% 29.69 in 10.0 mi Calm Calm - N/A   Scattered Clouds
8:35 PM 41.0 °F - 27.5 °F 59% 29.69 in 10.0 mi Calm Calm - N/A   Scattered Clouds
8:55 PM 38.7 °F - 27.0 °F 63% 29.70 in 10.0 mi Calm Calm - N/A   Clear
9:15 PM 40.5 °F - 28.2 °F 62% 29.70 in 10.0 mi Calm Calm - N/A   Scattered Clouds
9:35 PM 39.4 °F - 27.1 °F 62% 29.69 in 10.0 mi Calm Calm - N/A   Scattered Clouds
9:55 PM 38.3 °F - 26.4 °F 62% 29.69 in 10.0 mi Calm Calm - N/A   Scattered Clouds
10:15 PM 38.3 °F - 27.5 °F 65% 29.69 in 10.0 mi Calm Calm - N/A   Mostly Cloudy
10:35 PM 36.3 °F - 27.1 °F 69% 29.69 in 10.0 mi Calm Calm - N/A   Overcast
10:55 PM 35.6 °F - 28.9 °F 77% 29.70 in 10.0 mi Calm Calm - N/A   Overcast
11:15 PM 35.6 °F - 28.0 °F 74% 29.70 in 10.0 mi Calm Calm - N/A   Overcast
11:35 PM 35.6 °F - 28.4 °F 75% 29.71 in 10.0 mi Calm Calm - N/A   Overcast
11:55 PM 38.3 °F - 28.8 °F 69% 29.70 in 10.0 mi Calm Calm - N/A   Overcast